Regional Weather Roundup
Issued by NWS

Home | Current Version | Previous Version | Text Only | Print | Product List | Glossary Off
Versions: 1 2 3 4 5 6 7 8 9 10 11 12 13 14 15 16 17 18 19 20 21 22 23 24 25 26 27 28 29 30 31 32 33 34 35 36 37 38 39 40 41 42 43 44 45 46 47 48 49 50

000
ASUS43 KLSX 191457
RWRMO

WEATHER SUMMARY FOR MISSOURI
NATIONAL WEATHER SERVICE SPRINGFIELD MO
900 AM CST SUN NOV 19 2017

NOTE: "FAIR" INDICATES FEW OR NO CLOUDS BELOW 12,000 FEET WITH NO
       SIGNIFICANT WEATHER AND/OR OBSTRUCTIONS TO VISIBILITY.
       CURRENT SKY AND/OR WEATHER CONDITIONS ARE NOT AVAILABLE FOR
       CHILLICOTHE AND FARMINGTON.

MOZ001>031-035>038-043-044-053-054-191600-
...NORTHERN AND WESTERN MISSOURI...

CITY           SKY/WX    TMP DP  RH WIND       PRES   REMARKS
KANSAS CTY INT SUNNY     33  25  72 SW7       30.28R WCI  27
LEE`S SUMMIT   SUNNY     35  22  58 W8        30.30R WCI  29
ST JOSEPH      SUNNY     31  24  75 S5        30.29R WCI  26
CHILLICOTHE      N/A     33  22  63 W6        30.29R WCI  28

$$
MOZ066>068-077>081-088>096-101>105-191600-
...SOUTHWEST MISSOURI...

CITY           SKY/WX    TMP DP  RH WIND       PRES   REMARKS
SPRINGFIELD    SUNNY     36  29  75 NW8       30.28R WCI  30
JOPLIN         SUNNY     37  30  75 CALM      30.33R
BRANSON        SUNNY     37  23  56 NW8       30.30R

$$
MOZ032>034-039>042-045>050-055>058-069>072-191600-
...CENTRAL MISSOURI...

CITY           SKY/WX    TMP DP  RH WIND       PRES   REMARKS
COLUMBIA       NOT AVBL
JEFFERSON CITY SUNNY     33  21  61 W12       30.28R WCI  24
ROLLA          SUNNY     32  22  66 NW10      30.25R WCI  24
SEDALIA        SUNNY     34  22  61 NW12      30.30R WCI  25
WHITEMAN AFB   SUNNY     34  19  54 NW8       30.26R WCI  27
WARRENSBURG    SUNNY     34  23  64 W3        30.31R

$$
MOZ051-052-059>065-191600-
...EAST CENTRAL MISSOURI...

CITY           SKY/WX    TMP DP  RH WIND       PRES   REMARKS
ST LOUIS INTL  SUNNY     34  18  52 NW16      30.21R WCI  24

$$
MOZ072>076-082>087-097>100-106>115-191600-
...SOUTH CENTRAL AND SOUTHEAST MISSOURI...

CITY           SKY/WX    TMP DP  RH WIND       PRES   REMARKS
CAPE GIRARDEAU SUNNY     37  24  59 N18G28    30.22R WCI  27
POPLAR BLUFF   SUNNY     40  25  55 NW13G20   30.24R
WEST PLAINS    SUNNY     38  20  48 NW13      30.25R WCI  30

$$


USA.gov is the U.S. government's official web portal to all federal, state and local government web resources and services.